Regional Weather Roundup
Issued by NWS

Home | Current Version | Previous Version | Text Only | Print | Product List | Glossary On
Versions: 1 2 3 4 5 6 7 8 9 10 11 12 13 14 15 16 17 18 19 20 21 22 23 24 25 26 27 28 29 30 31 32 33 34 35 36 37 38 39 40 41 42 43 44 45 46 47 48 49 50
000
ASUS46 KPQR 120710
RWROR

OREGON REGIONAL WEATHER ROUNDUP
NATIONAL WEATHER SERVICE PORTLAND OR
1200 AM PDT SAT JUL 12 2014

NOTE: "FAIR" INDICATES FEW OR NO CLOUDS BELOW 12,000 FEET WITH
NO SIGNIFICANT WEATHER AND/OR OBSTRUCTIONS TO VISIBILITY.

ORZ001>013-120800-
NORTHWEST OREGON


CITY           SKY/WX    TMP DP  RH WIND       PRES   REMARKS
ASTORIA        CLOUDY    58  55  90 NW6       30.03F
NEWPORT        FOG       54  54 100 S6        30.10S VSB 3/4
PORTLAND       MOCLDY    73  60  63 NW6       29.99R
VANCOUVER WA   MOCLDY    71  58  63 W5        29.98R
SCAPPOOSE      MOCLDY    69  59  70 CALM      29.98R
HILLSBORO      MOCLDY    70  60  70 CALM      29.98R
AURORA         MOCLDY    71  59  65 CALM      30.00R
MCMINNVILLE    CLOUDY    69  58  67 W3        30.00R
SALEM          PTCLDY    70  55  59 S3        29.99R
CORVALLIS      PTCLDY    64  55  72 NW10      30.03R
EUGENE         CLEAR     65  59  81 SW8       30.02R
$$

ORZ021-028-120800-
SOUTHWEST OREGON


CITY           SKY/WX    TMP DP  RH WIND       PRES   REMARKS
NORTH BEND     CLOUDY    55  55 100 CALM      30.11
BROOKINGS      CLOUDY    55  53  93 SW3       30.10R
ROSEBURG       CLEAR     70  59  68 NW5       30.03R
SEXTON SUMMIT  CLEAR     65  53  65 N9        30.14R
MEDFORD        CLEAR     77  59  53 CALM      30.00R
$$

ORZ009-041-120800-
COLUMBIA GORGE


CITY           SKY/WX    TMP DP  RH WIND       PRES   REMARKS
TROUTDALE      MOCLDY    70  63  78 CALM      29.98R
THE DALLES     MOCLDY    78  51  38 NW16      29.93R
$$

ORZ029>031-042>050-061>064-120800-
EASTERN OREGON


CITY           SKY/WX    TMP DP  RH WIND       PRES   REMARKS
REDMOND        MOCLDY    64  43  46 CALM      30.10R
BEND           MOSUNNY   64  52  63 SW3       30.13S
KLAMATH FALLS  CLEAR     60  54  80 CALM      30.14S
LAKEVIEW       CLEAR     55  46  71 NW9       30.20S
HERMISTON      MOCLDY    75  42  30 S7        29.92R
PENDLETON      MOCLDY    69  38  32 SE9       29.97R
JOHN DAY       PTSUNNY   73  37  27 W3        30.12R
MEACHAM        MOCLDY    54  47  77 CALM      30.14R
LA GRANDE      MOCLDY    70  39  32 NW6       30.05R
BAKER CITY     MOCLDY    65  46  50 CALM      30.09R
BURNS          PTCLDY    55  49  80 W6        30.16R
ROME             N/A     67  55  65 CALM      30.14R
ONTARIO        CLOUDY    80  44  27 W10       29.98R
$$


USA.gov is the U.S. government's official web portal to all federal, state and local government web resources and services.